SCP
0 0 0 0 0 0 0 0 0 0 0 0 0 0 0 0 0 0 0 0 0 0 0 0 0 0 0 1 1 0 0 0 0 0 0 0 0 0 -0 -0 0 0 0 0
0 0 0 0 0 0 0 0 0 0 0 0 0 0 0 -0 0 0 0 0 0 -0 -0 0 0 0 0 1 1 0 0 0 0 0 0 0 0 0 0 0 0 0 0 0
0 0 0 0 0 0 0 0 0 0 0 0 0 -0 -0 -0 -0 -0 0 0 0 0 0 -0 0 0 0 0 0 0 0 0 0 0 0 0 0 0 0 0 0 0 0 0
0 0 0 0 0 0 0 0 0 0 0 0 -0 -0 -0 -0 -0 -0 0 0 0 0 0 -0 0 0 0 0 0 0 0 0 0 0 0 0 0 0 0 0 0 0 0 0
0 0 0 0 0 0 0 0 0 -0 0 0 0 0 -0 -0 -0 -0 0 0 -0 0 0 -0 0 0 0 0 0 0 0 0 0 0 0 1 1 0 0 0 0 0 0 0
0 0 0 0 0 0 0 0 0 0 0 0 0 0 0 0 0 0 0 0 0 0 0 0 0 0 0 0 0 0 0 0 0 0 0 0 0 0 0 0 0 0 0 0
0 0 0 0 0 0 0 0 0 0 -0 0 0 0 0 0 0 0 0 0 0 0 0 0 0 0 0 0 0 0 0 0 0 0 -0 1 0 0 0 0 0 0 0 0
0 0 0 0 0 0 0 0 0 0 0 0 0 0 0 0 0 0 0 0 0 0 0 0 0 0 0 0 0 0 0 0 0 0 0 0 0 0 0 0 0 0 0 0
0 0 0 0 0 0 0 0 0 0 0 0 0 0 0 0 0 0 0 0 0 0 0 0 0 0 0 0 0 0 0 0 0 0 0 0 0 0 0 0 0 0 0 0
0 0 0 0 0 0 0 0 0 0 0 0 0 0 0 0 0 0 0 0 0 0 0 0 0 0 0 0 0 0 0 0 0 0 0 0 0 0 0 0 0 0 0 0
0 0 0 0 0 0 0 0 0 0 0 0 0 0 0 0 0 0 0 0 0 0 0 0 0 0 0 0 0 0 0 0 0 0 0 0 0 0 0 0 0 -0 0 0
0 0 0 0 0 0 0 0 0 0 0 0 0 0 0 0 0 0 0 0 0 0 0 0 0 0 0 0 0 0 0 0 0 0 0 0 0 0 0 0 0 0 0 0
0 0 0 0 0 0 0 0 0 0 0 0 0 0 0 0 0 0 0 0 0 0 0 0 0 0 0 0 0 0 0 0 0 0 -0 -0 -0 -0 0 0 -0 0 0 0
0 0 0 0 0 0 0 0 0 0 0 0 0 0 0 0 0 0 0 0 0 0 0 0 0 0 0 0 0 0 0 0 0 0 0 0 0 0 0 0 0 0 0 0
0 0 0 0 0 0 0 0 0 0 0 0 0 0 0 0 0 0 -0 0 0 0 0 0 0 0 0 0 0 0 0 -0 0 -0 -0 0 0 0 0 0 0 0 0 0
0 0 0 0 0 0 0 0 0 0 0 -0 0 0 -0 0 0 0 0 -0 0 0 0 0 0 0 0 0 0 0 0 0 -0 0 0 0 0 0 0 0 0 0 0 -0
0 0 0 0 0 -0 0 0 0 0 0 -0 -0 -0 -0 0 0 0 0 0 0 0 0 0 0 0 0 0 0 0 0 0 0 0 0 0 0 0 -0 0 0 0 0 0
0 0 0 0 0 -0 0 0 0 0 0 -0 -0 -0 -0 -0 0 0 0 0 0 0 0 0 0 0 0 0 0 0 0 0 0 0 0 0 0 0 0 0 0 0 0 0
0 0 0 0 0 -0 -0 0 0 0 0 0 0 0 0 0 -0 0 0 0 0 0 0 0 0 0 0 0 0 0 0 0 0 0 0 0 0 0 0 0 0 0 0 0
0 0 0 0 0 -0 -0 -0 0 0 0 0 0 -0 -0 0 0 -0 -0 -0 0 0 0 0 0 0 0 0 0 0 0 0 0 0 0 0 0 0 0 0 0 0 0 0
0 0 0 0 0 0 -0 -0 -0 -0 -0 -0 -0 -0 -0 -0 0 0 -0 0 0 0 -0 -0 0 0 0 0 0 0 0 0 0 0 0 0 0 0 0 0 0 0 0 0
0 0 0 0 0 0 0 -0 -0 -0 -0 -0 -0 -0 -0 0 0 0 0 0 0 0 -0 -0 -0 0 -0 -0 0 0 0 0 0 0 0 0 0 0 0 0 0 0 0 0
0 0 0 0 0 0 0 0 -0 -0 -0 -0 0 -0 -0 0 0 0 0 0 0 0 0 0 -0 -0 -0 0 0 0 0 0 0 0 0 0 0 0 0 0 0 0 0 0
0 0 0 0 0 0 0 0 0 0 -0 -0 -0 -0 0 0 0 0 0 0 0 -0 -0 -0 -0 -0 0 0 0 0 0 0 0 0 0 0 0 0 0 0 0 0 0 0
0 0 0 0 0 0 0 0 0 0 0 0 0 0 0 0 0 0 0 0 -0 0 0 0 0 0 0 0 0 0 0 0 0 0 0 0 0 0 0 0 0 0 0 0
0 0 0 0 0 0 0 0 0 0 0 0 0 0 0 0 0 0 0 0 0 0 0 0 0 0 0 0 0 0 0 0 0 0 0 0 0 0 0 0 0 0 0 0
0 0 0 0 0 0 0 0 0 0 0 0 0 0 0 0 0 0 0 0 0 0 0 0 0 0 0 0 0 0 0 0 0 0 0 0 0 0 0 0 0 0 0 0
Wind_Speed_500mb
11 10 8 5 14 20 6 10 11 16 16 10 15 12 20 23 16 15 10 11 17 22 34 64 79 92 91 88 83 70 66 67 61 60 51 47 47 48 50 48 49 43 40 39
10 14 16 9 17 13 17 13 10 19 4 8 11 26 34 45 38 19 14 10 6 10 24 37 71 76 89 87 83 72 68 64 56 54 51 48 46 50 48 46 45 41 41 41
4 8 12 11 11 5 8 4 7 5 6 9 3 19 25 19 23 31 12 5 10 10 23 24 33 64 88 88 77 71 66 60 56 52 51 52 48 48 49 48 44 46 42 38
5 8 2 13 11 24 26 15 18 18 16 24 30 40 26 26 24 27 23 24 22 20 18 24 26 21 60 75 76 78 77 69 64 58 51 54 54 53 53 53 47 45 41 39
8 7 9 9 8 6 10 10 3 11 11 10 14 21 35 32 28 35 28 30 29 21 20 19 25 32 31 57 68 45 47 65 57 62 64 62 61 55 51 49 50 48 46 41
5 7 8 12 7 7 23 2 8 8 8 13 18 3 11 28 28 28 26 28 23 19 14 18 20 30 39 34 43 58 64 58 71 61 70 68 66 56 55 53 49 44 43 38
5 6 10 10 11 3 8 12 34 30 27 27 11 28 12 12 18 19 25 24 19 16 13 14 16 21 37 41 47 60 58 47 46 53 64 74 67 63 55 48 47 47 43 32
6 4 7 11 5 10 11 17 31 35 37 46 40 28 27 13 16 20 19 20 12 15 13 11 8 16 32 34 32 33 33 67 70 73 57 78 67 52 42 44 40 33 25 22
12 11 15 10 8 4 17 10 19 21 19 31 30 26 20 14 17 19 21 11 11 9 9 12 8 10 15 39 41 28 24 26 21 29 20 20 17 23 17 21 27 29 25 25
8 8 10 24 33 28 22 19 13 6 15 24 20 22 19 16 14 13 9 3 6 7 11 15 15 12 29 43 43 32 27 23 18 17 21 14 6 10 27 29 27 32 35 33
2 10 7 20 36 26 25 18 12 3 16 19 20 25 20 15 14 12 9 7 7 7 8 12 13 19 23 28 33 40 42 31 25 26 18 14 22 25 25 24 21 22 26 26
8 8 11 14 32 23 17 9 4 5 10 12 16 22 22 14 3 2 6 11 13 11 8 20 25 18 15 18 24 34 34 33 19 18 28 32 24 25 26 22 19 18 19 17
10 18 9 36 36 25 21 16 17 9 7 9 25 26 26 15 7 3 10 11 15 15 26 19 15 17 20 22 20 32 32 34 37 36 34 31 30 27 25 22 18 16 15 13
20 19 29 43 33 33 24 23 15 4 7 13 28 24 26 16 14 14 15 18 18 26 26 22 23 24 29 32 31 30 35 32 34 33 31 31 27 24 24 20 18 20 21 22
15 11 7 10 39 41 33 28 16 7 1 12 25 24 18 22 24 30 31 27 28 31 32 29 31 29 36 37 31 38 44 40 37 37 39 39 37 37 31 29 27 24 26 23
25 20 7 27 42 51 39 30 21 12 7 10 15 27 18 18 23 33 26 26 28 33 39 39 39 48 47 45 42 42 39 36 35 38 35 31 30 28 27 25 22 18 17 19
28 26 23 6 46 57 48 36 22 18 19 17 26 24 25 25 22 24 23 17 20 28 36 51 46 41 36 34 33 36 36 34 36 32 24 18 19 18 17 16 12 8 6 6
26 27 25 27 35 61 54 42 32 27 31 31 39 35 34 31 29 26 22 21 26 36 38 41 37 37 36 32 30 29 30 36 32 26 20 16 22 22 19 14 12 10 8 6
34 31 23 24 22 60 60 51 41 34 36 37 39 38 38 36 31 30 27 25 26 37 40 43 36 29 28 34 34 29 32 29 24 24 15 12 13 12 12 12 5 2 6 4
32 35 24 28 30 45 66 50 47 47 40 39 39 41 41 37 34 33 24 18 21 28 42 43 32 29 24 26 23 16 18 29 25 19 20 20 19 14 14 11 13 10 9 10
41 37 30 25 26 46 65 58 59 57 50 42 48 45 44 41 31 28 27 24 27 29 28 26 24 30 29 19 14 13 15 19 31 27 24 21 19 20 18 17 14 12 13 12
28 31 25 28 34 47 55 61 59 61 54 48 51 48 49 38 33 32 24 19 19 25 25 28 25 25 23 16 10 10 7 14 22 28 24 20 18 17 12 8 10 13 16 20
7 25 31 25 29 32 44 63 70 64 55 55 55 55 50 40 39 42 37 26 17 23 30 26 28 23 23 22 18 13 10 16 25 25 21 17 15 15 15 18 19 22 24 26
18 21 24 31 34 33 46 66 74 64 57 57 56 51 52 50 44 38 30 33 28 27 29 27 23 21 21 20 22 22 22 21 20 19 18 17 16 12 3 5 14 15 13 13
14 4 24 32 40 43 41 66 73 64 60 60 57 48 45 40 39 41 33 30 23 26 29 29 30 30 26 25 24 23 20 21 20 16 11 9 11 8 6 9 14 19 18 20
20 17 10 15 40 44 53 76 73 66 63 65 59 47 43 44 43 34 38 34 28 26 27 28 30 27 24 22 21 19 21 25 21 16 11 11 14 7 2 7 12 23 21 25
28 28 26 19 36 56 72 83 78 72 67 62 59 54 53 55 48 40 38 35 30 29 28 25 25 24 25 28 20 10 7 14 17 11 6 3 7 11 12 11 14 27 25 27
Wind_Direction_500mb
210 240 20 323 332 331 335 185 159 239 190 171 167 182 184 186 215 314 286 11 12 300 255 231 229 224 215 224 224 218 221 220 222 213 215 213 216 217 219 223 228 233 237 238
354 2 23 342 319 355 14 11 57 110 94 238 200 190 190 213 221 264 209 242 308 254 263 248 224 224 216 217 215 217 219 221 219 213 216 218 218 219 218 224 228 231 238 243
287 0 22 2 308 306 111 350 199 153 183 144 242 225 198 249 268 272 326 285 219 267 243 246 220 225 218 208 209 213 215 224 223 222 224 226 224 222 227 229 230 233 235 236
187 42 33 237 277 105 74 55 98 99 134 175 201 202 226 236 265 276 300 299 277 268 262 244 224 220 205 202 207 212 212 217 222 227 229 228 226 224 227 232 235 234 236 235
126 166 284 340 334 0 104 346 335 131 157 183 184 221 262 229 252 279 274 282 284 264 243 238 233 218 217 205 189 199 231 222 220 225 233 228 227 227 228 227 227 227 229 234
120 139 223 233 253 0 118 58 243 161 207 168 153 222 260 206 218 251 284 295 303 283 243 230 217 212 218 224 221 232 241 247 236 231 233 229 222 216 214 218 222 229 236 240
153 182 279 247 273 265 95 221 193 191 199 212 197 234 309 252 255 269 292 306 303 276 258 253 212 216 208 216 222 235 234 239 258 239 274 230 220 216 213 216 222 228 239 235
98 154 254 221 85 144 208 164 184 201 200 210 224 254 268 248 271 287 301 306 328 292 257 258 193 193 179 193 196 211 232 241 237 254 223 200 213 208 203 215 215 210 207 196
161 209 218 202 226 202 178 165 183 194 217 217 214 230 244 262 283 288 292 302 314 318 252 261 197 170 187 179 161 159 189 214 155 186 117 130 162 187 190 213 197 184 177 165
93 289 190 140 102 115 132 115 103 179 217 211 217 214 217 250 272 282 292 332 302 347 240 243 226 144 151 144 138 129 135 143 164 156 119 190 123 153 147 163 146 142 136 139
292 267 132 133 137 134 113 86 52 175 201 235 229 209 226 231 273 298 278 192 235 233 121 217 199 163 170 163 159 150 149 127 110 93 99 116 143 132 123 128 131 126 130 135
199 203 158 158 159 162 141 111 226 191 181 193 214 231 231 207 190 353 269 193 203 220 179 122 143 140 133 154 169 175 172 158 175 179 160 149 148 144 139 147 144 146 140 141
180 158 193 171 169 180 160 159 162 144 170 254 235 246 241 213 152 128 119 170 168 156 158 183 123 107 114 123 140 149 150 157 143 143 143 145 148 154 154 156 143 141 136 131
135 147 136 165 178 176 180 163 150 151 334 262 238 210 189 189 137 118 127 129 146 150 152 145 138 132 132 131 131 130 123 131 131 133 134 131 131 129 126 123 127 125 119 117
157 155 209 204 184 175 177 163 152 128 75 241 226 204 188 170 142 122 122 122 123 130 135 134 135 143 137 126 121 127 125 124 121 121 117 115 111 109 106 107 110 112 112 104
182 185 179 172 193 181 178 169 160 136 146 216 195 180 175 197 177 136 131 127 126 126 124 128 132 128 124 120 122 125 121 120 122 128 126 123 113 100 98 103 102 97 108 99
188 202 212 211 197 189 192 185 167 139 147 145 153 145 165 172 157 152 141 115 135 136 129 128 123 123 120 127 131 132 129 136 135 135 135 138 139 138 112 106 94 90 82 94
228 241 256 255 217 205 192 182 168 157 155 146 154 156 159 162 152 148 147 151 150 157 148 138 135 133 129 139 152 147 136 139 145 142 136 133 131 127 135 128 111 103 127 173
229 241 245 246 249 214 201 184 178 169 163 167 166 159 154 168 163 163 167 164 157 159 157 153 151 140 130 129 133 155 165 164 158 152 148 141 154 171 184 190 164 258 318 346
242 233 243 243 258 229 204 188 179 183 175 179 180 176 167 173 175 173 166 160 164 159 160 162 165 155 147 147 142 135 188 183 170 167 156 149 158 167 176 205 217 201 203 190
224 218 225 241 246 214 202 188 185 187 183 179 181 181 181 182 174 174 169 162 140 146 154 163 166 168 182 173 178 166 113 170 192 196 182 178 191 193 190 187 189 185 181 196
186 205 218 204 189 197 199 194 196 189 182 182 177 181 184 172 178 184 186 188 182 183 174 171 167 169 175 183 189 182 174 167 179 189 191 185 191 204 212 231 256 262 268 271
199 212 198 198 196 193 202 197 195 190 186 184 181 179 179 181 183 185 189 193 198 183 187 188 190 189 193 207 221 235 211 184 180 189 196 203 220 244 268 281 289 291 288 282
357 218 197 201 203 205 192 196 189 189 191 189 188 183 184 188 191 206 203 194 206 204 204 207 203 207 218 219 225 224 214 206 200 203 210 234 260 279 186 26 16 21 18 348
285 318 203 215 213 208 205 198 188 188 191 195 192 194 199 204 203 196 206 207 202 204 209 210 212 214 221 217 220 224 218 222 219 217 208 244 263 204 149 8 26 22 35 43
336 292 267 232 218 210 205 191 187 187 192 194 195 197 201 203 200 203 202 203 206 200 203 202 200 210 223 228 222 225 218 203 196 208 254 255 217 207 179 352 359 360 2 3
307 310 280 269 221 211 200 190 189 190 192 194 196 198 199 195 196 203 204 205 210 212 213 211 214 221 223 217 207 181 206 193 194 191 173 135 173 200 242 261 328 344 342 335
Wind_Speed_850mb
11 10 8 5 14 20 6 10 11 16 16 10 15 12 20 23 16 15 10 11 17 22 34 64 79 92 91 88 83 70 66 67 61 60 51 47 47 48 50 48 49 43 40 39
10 14 16 9 17 13 17 13 10 19 4 8 11 26 34 45 38 19 14 10 6 10 24 37 71 76 89 87 83 72 68 64 56 54 51 48 46 50 48 46 45 41 41 41
4 8 12 11 11 5 8 4 7 5 6 9 3 19 25 19 23 31 12 5 10 10 23 24 33 64 88 88 77 71 66 60 56 52 51 52 48 48 49 48 44 46 42 38
5 8 2 13 11 24 26 15 18 18 16 24 30 40 26 26 24 27 23 24 22 20 18 24 26 21 60 75 76 78 77 69 64 58 51 54 54 53 53 53 47 45 41 39
8 7 9 9 8 6 10 10 3 11 11 10 14 21 35 32 28 35 28 30 29 21 20 19 25 32 31 57 68 45 47 65 57 62 64 62 61 55 51 49 50 48 46 41
5 7 8 12 7 7 23 2 8 8 8 13 18 3 11 28 28 28 26 28 23 19 14 18 20 30 39 34 43 58 64 58 71 61 70 68 66 56 55 53 49 44 43 38
5 6 10 10 11 3 8 12 34 30 27 27 11 28 12 12 18 19 25 24 19 16 13 14 16 21 37 41 47 60 58 47 46 53 64 74 67 63 55 48 47 47 43 32
6 4 7 11 5 10 11 17 31 35 37 46 40 28 27 13 16 20 19 20 12 15 13 11 8 16 32 34 32 33 33 67 70 73 57 78 67 52 42 44 40 33 25 22
12 11 15 10 8 4 17 10 19 21 19 31 30 26 20 14 17 19 21 11 11 9 9 12 8 10 15 39 41 28 24 26 21 29 20 20 17 23 17 21 27 29 25 25
8 8 10 24 33 28 22 19 13 6 15 24 20 22 19 16 14 13 9 3 6 7 11 15 15 12 29 43 43 32 27 23 18 17 21 14 6 10 27 29 27 32 35 33
2 10 7 20 36 26 25 18 12 3 16 19 20 25 20 15 14 12 9 7 7 7 8 12 13 19 23 28 33 40 42 31 25 26 18 14 22 25 25 24 21 22 26 26
8 8 11 14 32 23 17 9 4 5 10 12 16 22 22 14 3 2 6 11 13 11 8 20 25 18 15 18 24 34 34 33 19 18 28 32 24 25 26 22 19 18 19 17
10 18 9 36 36 25 21 16 17 9 7 9 25 26 26 15 7 3 10 11 15 15 26 19 15 17 20 22 20 32 32 34 37 36 34 31 30 27 25 22 18 16 15 13
20 19 29 43 33 33 24 23 15 4 7 13 28 24 26 16 14 14 15 18 18 26 26 22 23 24 29 32 31 30 35 32 34 33 31 31 27 24 24 20 18 20 21 22
15 11 7 10 39 41 33 28 16 7 1 12 25 24 18 22 24 30 31 27 28 31 32 29 31 29 36 37 31 38 44 40 37 37 39 39 37 37 31 29 27 24 26 23
25 20 7 27 42 51 39 30 21 12 7 10 15 27 18 18 23 33 26 26 28 33 39 39 39 48 47 45 42 42 39 36 35 38 35 31 30 28 27 25 22 18 17 19
28 26 23 6 46 57 48 36 22 18 19 17 26 24 25 25 22 24 23 17 20 28 36 51 46 41 36 34 33 36 36 34 36 32 24 18 19 18 17 16 12 8 6 6
26 27 25 27 35 61 54 42 32 27 31 31 39 35 34 31 29 26 22 21 26 36 38 41 37 37 36 32 30 29 30 36 32 26 20 16 22 22 19 14 12 10 8 6
34 31 23 24 22 60 60 51 41 34 36 37 39 38 38 36 31 30 27 25 26 37 40 43 36 29 28 34 34 29 32 29 24 24 15 12 13 12 12 12 5 2 6 4
32 35 24 28 30 45 66 50 47 47 40 39 39 41 41 37 34 33 24 18 21 28 42 43 32 29 24 26 23 16 18 29 25 19 20 20 19 14 14 11 13 10 9 10
41 37 30 25 26 46 65 58 59 57 50 42 48 45 44 41 31 28 27 24 27 29 28 26 24 30 29 19 14 13 15 19 31 27 24 21 19 20 18 17 14 12 13 12
28 31 25 28 34 47 55 61 59 61 54 48 51 48 49 38 33 32 24 19 19 25 25 28 25 25 23 16 10 10 7 14 22 28 24 20 18 17 12 8 10 13 16 20
7 25 31 25 29 32 44 63 70 64 55 55 55 55 50 40 39 42 37 26 17 23 30 26 28 23 23 22 18 13 10 16 25 25 21 17 15 15 15 18 19 22 24 26
18 21 24 31 34 33 46 66 74 64 57 57 56 51 52 50 44 38 30 33 28 27 29 27 23 21 21 20 22 22 22 21 20 19 18 17 16 12 3 5 14 15 13 13
14 4 24 32 40 43 41 66 73 64 60 60 57 48 45 40 39 41 33 30 23 26 29 29 30 30 26 25 24 23 20 21 20 16 11 9 11 8 6 9 14 19 18 20
20 17 10 15 40 44 53 76 73 66 63 65 59 47 43 44 43 34 38 34 28 26 27 28 30 27 24 22 21 19 21 25 21 16 11 11 14 7 2 7 12 23 21 25
28 28 26 19 36 56 72 83 78 72 67 62 59 54 53 55 48 40 38 35 30 29 28 25 25 24 25 28 20 10 7 14 17 11 6 3 7 11 12 11 14 27 25 27
Wind_Direction_850mb
210 240 20 323 332 331 335 185 159 239 190 171 167 182 184 186 215 314 286 11 12 300 255 231 229 224 215 224 224 218 221 220 222 213 215 213 216 217 219 223 228 233 237 238
354 2 23 342 319 355 14 11 57 110 94 238 200 190 190 213 221 264 209 242 308 254 263 248 224 224 216 217 215 217 219 221 219 213 216 218 218 219 218 224 228 231 238 243
287 0 22 2 308 306 111 350 199 153 183 144 242 225 198 249 268 272 326 285 219 267 243 246 220 225 218 208 209 213 215 224 223 222 224 226 224 222 227 229 230 233 235 236
187 42 33 237 277 105 74 55 98 99 134 175 201 202 226 236 265 276 300 299 277 268 262 244 224 220 205 202 207 212 212 217 222 227 229 228 226 224 227 232 235 234 236 235
126 166 284 340 334 0 104 346 335 131 157 183 184 221 262 229 252 279 274 282 284 264 243 238 233 218 217 205 189 199 231 222 220 225 233 228 227 227 228 227 227 227 229 234
120 139 223 233 253 0 118 58 243 161 207 168 153 222 260 206 218 251 284 295 303 283 243 230 217 212 218 224 221 232 241 247 236 231 233 229 222 216 214 218 222 229 236 240
153 182 279 247 273 265 95 221 193 191 199 212 197 234 309 252 255 269 292 306 303 276 258 253 212 216 208 216 222 235 234 239 258 239 274 230 220 216 213 216 222 228 239 235
98 154 254 221 85 144 208 164 184 201 200 210 224 254 268 248 271 287 301 306 328 292 257 258 193 193 179 193 196 211 232 241 237 254 223 200 213 208 203 215 215 210 207 196
161 209 218 202 226 202 178 165 183 194 217 217 214 230 244 262 283 288 292 302 314 318 252 261 197 170 187 179 161 159 189 214 155 186 117 130 162 187 190 213 197 184 177 165
93 289 190 140 102 115 132 115 103 179 217 211 217 214 217 250 272 282 292 332 302 347 240 243 226 144 151 144 138 129 135 143 164 156 119 190 123 153 147 163 146 142 136 139
292 267 132 133 137 134 113 86 52 175 201 235 229 209 226 231 273 298 278 192 235 233 121 217 199 163 170 163 159 150 149 127 110 93 99 116 143 132 123 128 131 126 130 135
199 203 158 158 159 162 141 111 226 191 181 193 214 231 231 207 190 353 269 193 203 220 179 122 143 140 133 154 169 175 172 158 175 179 160 149 148 144 139 147 144 146 140 141
180 158 193 171 169 180 160 159 162 144 170 254 235 246 241 213 152 128 119 170 168 156 158 183 123 107 114 123 140 149 150 157 143 143 143 145 148 154 154 156 143 141 136 131
135 147 136 165 178 176 180 163 150 151 334 262 238 210 189 189 137 118 127 129 146 150 152 145 138 132 132 131 131 130 123 131 131 133 134 131 131 129 126 123 127 125 119 117
157 155 209 204 184 175 177 163 152 128 75 241 226 204 188 170 142 122 122 122 123 130 135 134 135 143 137 126 121 127 125 124 121 121 117 115 111 109 106 107 110 112 112 104
182 185 179 172 193 181 178 169 160 136 146 216 195 180 175 197 177 136 131 127 126 126 124 128 132 128 124 120 122 125 121 120 122 128 126 123 113 100 98 103 102 97 108 99
188 202 212 211 197 189 192 185 167 139 147 145 153 145 165 172 157 152 141 115 135 136 129 128 123 123 120 127 131 132 129 136 135 135 135 138 139 138 112 106 94 90 82 94
228 241 256 255 217 205 192 182 168 157 155 146 154 156 159 162 152 148 147 151 150 157 148 138 135 133 129 139 152 147 136 139 145 142 136 133 131 127 135 128 111 103 127 173
229 241 245 246 249 214 201 184 178 169 163 167 166 159 154 168 163 163 167 164 157 159 157 153 151 140 130 129 133 155 165 164 158 152 148 141 154 171 184 190 164 258 318 346
242 233 243 243 258 229 204 188 179 183 175 179 180 176 167 173 175 173 166 160 164 159 160 162 165 155 147 147 142 135 188 183 170 167 156 149 158 167 176 205 217 201 203 190
224 218 225 241 246 214 202 188 185 187 183 179 181 181 181 182 174 174 169 162 140 146 154 163 166 168 182 173 178 166 113 170 192 196 182 178 191 193 190 187 189 185 181 196
186 205 218 204 189 197 199 194 196 189 182 182 177 181 184 172 178 184 186 188 182 183 174 171 167 169 175 183 189 182 174 167 179 189 191 185 191 204 212 231 256 262 268 271
199 212 198 198 196 193 202 197 195 190 186 184 181 179 179 181 183 185 189 193 198 183 187 188 190 189 193 207 221 235 211 184 180 189 196 203 220 244 268 281 289 291 288 282
357 218 197 201 203 205 192 196 189 189 191 189 188 183 184 188 191 206 203 194 206 204 204 207 203 207 218 219 225 224 214 206 200 203 210 234 260 279 186 26 16 21 18 348
285 318 203 215 213 208 205 198 188 188 191 195 192 194 199 204 203 196 206 207 202 204 209 210 212 214 221 217 220 224 218 222 219 217 208 244 263 204 149 8 26 22 35 43
336 292 267 232 218 210 205 191 187 187 192 194 195 197 201 203 200 203 202 203 206 200 203 202 200 210 223 228 222 225 218 203 196 208 254 255 217 207 179 352 359 360 2 3
307 310 280 269 221 211 200 190 189 190 192 194 196 198 199 195 196 203 204 205 210 212 213 211 214 221 223 217 207 181 206 193 194 191 173 135 173 200 242 261 328 344 342 335